CW2551 Weather Reports


Display with metric or nautical units.
time (UTC)temp
F
wind
direction
speed
MPH
gust
MPH
rain 1hr
in
rain 24hr
in
rain mn
in
humidity
%
barometer
mb
20210624094605 60 214 0.0 0.0 0.00 0.00 0.00 83 1012.8
20210624094105 61 214 0.0 0.0 0.00 0.00 0.00 81 1012.9
20210624094014 62 214 0.0 0.0 0.00 0.00 0.00 82 1012.8
20210624093605 62 214 0.0 0.0 0.00 0.00 0.00 82 1012.8
20210624093105 61 214 0.0 0.0 0.00 0.00 0.00 82 1012.8
20210624093015 61 214 0.0 0.0 0.00 0.00 0.00 82 1012.7
20210624092605 61 214 0.0 0.0 0.00 0.00 0.00 82 1012.7
20210624092104 61 214 0.0 0.0 0.00 0.00 0.00 82 1012.8
20210624092015 61 214 0.0 0.0 0.00 0.00 0.00 81 1012.7
20210624091605 61 214 0.0 0.0 0.00 0.00 0.00 81 1012.7
20210624091104 62 214 0.0 0.0 0.00 0.00 0.00 79 1012.7
20210624091015 63 214 0.0 0.0 0.00 0.00 0.00 80 1012.8
20210624090605 63 214 0.0 0.0 0.00 0.00 0.00 80 1012.8
20210624090105 62 214 0.0 0.0 0.00 0.00 0.00 81 1012.6
20210624090014 62 214 0.0 0.0 0.00 0.00 0.00 81 1012.7
20210624085605 62 214 0.0 0.0 0.00 0.00 0.00 81 1012.7
20210624085105 62 214 0.0 0.0 0.00 0.00 0.00 81 1012.6
20210624085015 62 214 0.0 0.0 0.00 0.00 0.00 81 1012.6
20210624084605 62 214 0.0 0.0 0.00 0.00 0.00 81 1012.6
20210624084105 62 214 0.0 0.0 0.00 0.00 0.00 80 1012.5
20210624084015 63 214 0.0 0.0 0.00 0.00 0.00 79 1012.6
20210624083605 63 214 0.0 0.0 0.00 0.00 0.00 79 1012.6
20210624083105 63 214 0.0 0.0 0.00 0.00 0.00 80 1012.5
20210624083014 63 214 0.0 0.0 0.00 0.00 0.00 81 1012.5
20210624082605 63 214 0.0 0.0 0.00 0.00 0.00 81 1012.5
20210624082105 63 214 0.0 0.0 0.00 0.00 0.00 80 1012.4
20210624082016 63 214 0.0 0.0 0.00 0.00 0.00 79 1012.3
20210624081605 63 214 0.0 0.0 0.00 0.00 0.00 79 1012.3
20210624081105 63 214 0.0 0.0 0.00 0.00 0.00 80 1012.4
20210624081014 64 214 0.0 0.0 0.00 0.00 0.00 78 1012.4
20210624080604 64 214 0.0 0.0 0.00 0.00 0.00 78 1012.4
20210624080105 64 214 0.0 0.0 0.00 0.00 0.00 77 1012.4
20210624080014 64 214 0.0 0.0 0.00 0.00 0.00 77 1012.4
20210624075605 64 214 0.0 0.0 0.00 0.00 0.00 77 1012.4
20210624075105 64 214 0.0 0.0 0.00 0.00 0.00 78 1012.3
20210624075014 64 214 0.0 0.0 0.00 0.00 0.00 78 1012.2
20210624074604 64 214 0.0 0.0 0.00 0.00 0.00 78 1012.2
20210624074105 64 214 0.0 0.0 0.00 0.00 0.00 78 1012.2
20210624074015 64 214 0.0 0.0 0.00 0.00 0.00 78 1012.2
20210624073605 64 214 0.0 0.0 0.00 0.00 0.00 78 1012.2
20210624073105 64 214 0.0 0.0 0.00 0.00 0.00 77 1012.1
20210624073015 65 214 0.0 0.0 0.00 0.00 0.00 76 1012.1
20210624072605 65 214 0.0 0.0 0.00 0.00 0.00 76 1012.1
20210624072105 65 214 0.0 0.0 0.00 0.00 0.00 76 1012.1
20210624072015 65 214 0.0 0.0 0.00 0.00 0.00 76 1012.1
20210624071605 65 214 0.0 0.0 0.00 0.00 0.00 76 1012.1
20210624071108 65 214 0.0 0.0 0.00 0.00 0.00 75 1012.0
20210624071014 66 214 0.0 0.0 0.00 0.00 0.00 74 1012.0
20210624070604 66 214 0.0 0.0 0.00 0.00 0.00 74 1012.0
20210624070105 66 214 0.0 0.0 0.00 0.00 0.00 73 1011.9
20210624070014 67 214 0.0 0.0 0.00 0.00 0.00 72 1011.9
20210624065608 67 214 0.0 0.0 0.00 0.00 0.00 72 1011.9
20210624065105 67 214 0.0 0.0 0.00 0.00 0.00 71 1011.8
20210624065016 67 214 0.0 0.0 0.00 0.00 0.00 70 1011.8
20210624064605 67 214 0.0 0.0 0.00 0.00 0.00 70 1011.8
20210624064104 68 214 0.0 0.0 0.00 0.00 0.00 69 1011.6
20210624064014 68 214 0.0 0.0 0.00 0.00 0.00 70 1011.5
20210624063605 68 214 0.0 0.0 0.00 0.00 0.00 70 1011.5
20210624063105 70 214 0.0 0.0 0.00 0.00 0.00 65 1011.5
20210624063015 69 214 0.0 0.0 0.00 0.01 0.00 68 1011.6
20210624062605 69 214 0.0 0.0 0.00 0.01 0.00 68 1011.6
20210624062105 69 214 0.0 0.0 0.00 0.01 0.00 67 1011.6
20210624062015 69 214 0.0 0.0 0.00 0.02 0.00 68 1011.5
20210624061605 69 214 0.0 0.0 0.00 0.02 0.00 68 1011.5
20210624061105 68 217 0.0 0.0 0.00 0.04 0.00 72 1011.5
20210624061015 68 217 0.0 0.0 0.00 0.06 0.00 71 1011.5
20210624060605 68 217 0.0 0.0 0.00 0.06 0.00 71 1011.5
20210624060105 68 218 0.0 0.0 0.00 0.10 0.00 71 1011.5
20210624060014 68 218 0.0 0.0 0.00 0.17 0.00 70 1011.5
20210624055605 68 218 0.0 0.0 0.00 0.17 0.00 70 1011.5
20210624055105 68 218 0.0 0.0 0.00 0.34 0.00 68 1011.1
20210624055014 69 218 0.0 0.0 0.00 0.47 0.00 69 1011.1
20210624054605 69 218 0.0 0.0 0.00 0.47 0.00 69 1011.1
20210624054105 69 218 0.0 0.0 0.00 0.56 0.00 66 1011.1
20210624054015 70 218 0.0 0.0 0.00 0.56 0.00 65 1011.3
20210624053604 70 218 0.0 0.0 0.00 0.56 0.00 65 1011.3
20210624053105 70 218 0.0 0.0 0.00 0.56 0.00 64 1011.3
20210624053014 70 218 0.0 0.0 0.00 0.56 0.00 64 1011.3
20210624052605 70 218 0.0 0.0 0.00 0.56 0.00 64 1011.3
20210624052105 70 218 0.0 0.0 0.00 0.56 0.00 64 1011.3
20210624052016 70 218 0.0 0.0 0.00 0.56 0.00 63 1011.2
20210624051605 70 218 0.0 0.0 0.00 0.56 0.00 63 1011.2
20210624051105 71 218 0.0 0.0 0.00 0.56 0.00 62 1011.1
20210624051014 71 218 0.0 0.0 0.00 0.56 0.00 61 1011.1
20210624050604 71 218 0.0 0.0 0.00 0.56 0.00 61 1011.1
20210624050105 71 218 0.0 0.0 0.00 0.56 0.00 60 1011.0
20210624050014 73 218 0.0 0.0 0.00 0.56 0.00 59 1011.0
20210624045605 73 218 0.0 0.0 0.00 0.56 0.00 59 1011.0
20210624045104 73 218 0.0 0.0 0.00 0.56 0.00 57 1011.0
20210624045016 73 218 0.0 0.0 0.00 0.56 0.00 59 1010.9
20210624044605 73 218 0.0 0.0 0.00 0.56 0.00 59 1010.9
20210624044105 73 218 0.0 0.0 0.00 0.56 0.00 56 1010.8
20210624044014 73 218 0.0 0.0 0.00 0.56 0.00 55 1010.7
20210624043605 73 218 0.0 0.0 0.00 0.56 0.00 55 1010.7
20210624043105 73 218 0.0 0.0 0.00 0.56 0.00 56 1010.5
20210624043015 74 218 0.0 0.0 0.00 0.56 0.00 55 1010.4
20210624042605 74 218 0.0 0.0 0.00 0.56 0.00 55 1010.4
20210624042105 75 218 0.0 0.0 0.00 0.56 0.00 50 1010.3
20210624042015 76 218 0.0 0.0 0.00 0.56 0.00 51 1010.3
20210624041605 76 218 0.0 0.0 0.00 0.56 0.00 51 1010.3
20210624041105 76 218 0.0 0.0 0.00 0.56 0.00 50 1010.2
20210624041014 77 218 0.0 0.0 0.00 0.56 0.00 48 1010.3
20210624040605 77 218 0.0 0.0 0.00 0.56 0.00 48 1010.3
20210624040105 77 218 0.0 0.0 0.00 0.56 0.00 48 1010.2
20210624040014 78 218 0.0 0.0 0.00 0.56 0.00 47 1010.1
20210624035605 78 218 0.0 0.0 0.00 0.56 0.00 47 1010.1
20210624035105 78 218 0.0 0.0 0.00 0.56 0.00 46 1010.1
20210624035016 79 217 0.0 0.0 0.00 0.56 0.00 44 1009.8
20210624034605 79 217 0.0 0.0 0.00 0.56 0.00 44 1009.8
20210624034105 80 217 0.0 0.0 0.00 0.56 0.00 42 1009.7
20210624034014 79 217 0.0 0.0 0.00 0.56 0.00 44 1009.7
20210624033605 79 217 0.0 0.0 0.00 0.56 0.00 44 1009.7
20210624033105 80 217 0.0 0.0 0.00 0.56 0.00 43 1009.6
20210624033015 80 217 0.0 0.0 0.00 0.56 0.00 42 1009.5
20210624032605 80 217 0.0 0.0 0.00 0.56 0.00 42 1009.5
20210624032105 81 217 0.0 2.0 0.00 0.56 0.00 41 1009.4
20210624032015 81 217 0.0 2.0 0.00 0.56 0.00 41 1009.5
20210624031605 81 217 0.0 2.0 0.00 0.56 0.00 41 1009.5
20210624031105 81 217 1.0 3.0 0.00 0.56 0.00 40 1009.4
20210624031015 82 220 1.0 3.0 0.00 0.56 0.00 38 1009.4
20210624030605 82 220 1.0 3.0 0.00 0.56 0.00 38 1009.4
20210624030105 82 219 2.0 5.0 0.00 0.56 0.00 39 1009.4
20210624030014 82 233 2.0 5.0 0.00 0.56 0.00 39 1009.5
20210624025605 82 233 2.0 5.0 0.00 0.56 0.00 39 1009.5
20210624025105 82 216 2.0 5.0 0.00 0.56 0.00 39 1009.4
20210624025015 82 227 1.0 5.0 0.00 0.56 0.00 38 1009.4
20210624024605 82 227 1.0 5.0 0.00 0.56 0.00 38 1009.4
20210624024105 83 218 1.0 5.0 0.00 0.56 0.00 38 1009.4
20210624024015 83 218 1.0 5.0 0.00 0.56 0.00 37 1009.2
20210624023605 83 218 1.0 5.0 0.00 0.56 0.00 37 1009.2
20210624023105 83 206 1.0 6.0 0.00 0.56 0.00 37 1009.2
20210624023015 83 223 1.0 5.0 0.00 0.56 0.00 37 1009.2
20210624022605 83 223 1.0 5.0 0.00 0.56 0.00 37 1009.2
20210624022105 84 260 1.0 3.0 0.00 0.56 0.00 37 1009.1
20210624022017 84 235 1.0 5.0 0.00 0.56 0.00 37 1008.9
20210624021605 84 235 1.0 5.0 0.00 0.56 0.00 37 1008.9
20210624021105 84 232 1.0 8.0 0.00 0.56 0.00 37 1008.7
20210624021015 85 228 2.0 14.0 0.00 0.56 0.00 36 1008.7
20210624020605 85 228 2.0 14.0 0.00 0.56 0.00 36 1008.7
20210624020105 85 234 6.0 17.0 0.00 0.56 0.00 35 1008.6
20210624020015 85 229 2.0 9.0 0.00 0.56 0.00 36 1008.4
20210624015605 85 229 2.0 9.0 0.00 0.56 0.00 36 1008.4
20210624015105 86 242 2.0 7.0 0.00 0.56 0.00 36 1008.2
20210624015015 86 227 4.0 12.0 0.00 0.56 0.00 35 1008.1
20210624014605 86 227 4.0 12.0 0.00 0.56 0.00 35 1008.1
20210624014105 87 247 5.0 16.0 0.00 0.56 0.00 34 1008.0
20210624014015 88 232 2.0 7.0 0.00 0.56 0.00 36 1008.3
20210624013605 88 232 2.0 7.0 0.00 0.56 0.00 36 1008.3
20210624013105 88 247 1.0 3.0 0.00 0.56 0.00 35 1008.3
20210624013015 88 249 1.0 7.0 0.00 0.56 0.00 34 1008.1
20210624012605 88 249 1.0 7.0 0.00 0.56 0.00 34 1008.1
20210624012105 88 244 1.0 7.0 0.00 0.56 0.00 34 1008.1
20210624012016 88 245 0.0 5.0 0.00 0.56 0.00 34 1007.9
20210624011605 88 245 0.0 5.0 0.00 0.56 0.00 34 1007.9
20210624011105 88 245 0.0 1.0 0.00 0.56 0.00 35 1007.8
20210624011015 88 244 2.0 7.0 0.00 0.56 0.00 34 1007.8
20210624010605 88 244 2.0 7.0 0.00 0.56 0.00 34 1007.8
20210624010105 88 258 0.0 2.0 0.00 0.56 0.00 35 1007.8
20210624010015 89 258 1.0 8.0 0.00 0.56 0.00 32 1007.8
20210624005605 89 258 1.0 8.0 0.00 0.56 0.00 32 1007.8
20210624005105 89 256 1.0 5.0 0.00 0.56 0.00 31 1007.7
20210624005016 90 256 0.0 5.0 0.00 0.56 0.00 33 1007.6
20210624004605 90 256 0.0 5.0 0.00 0.56 0.00 33 1007.6
20210624004104 90 253 0.0 3.0 0.00 0.56 0.00 30 1007.5
20210624004015 90 253 2.0 10.0 0.00 0.56 0.00 29 1007.6
20210624003604 90 253 2.0 10.0 0.00 0.56 0.00 29 1007.6
20210624003104 90 263 1.0 12.0 0.00 0.56 0.00 32 1007.7
20210624003015 91 247 1.0 3.0 0.00 0.56 0.00 30 1007.7
20210624002605 91 247 1.0 3.0 0.00 0.56 0.00 30 1007.7
20210624002105 91 239 0.0 3.0 0.00 0.56 0.00 30 1007.6
20210624002015 92 237 2.0 9.0 0.00 0.56 0.00 27 1007.5
20210624001605 92 237 2.0 9.0 0.00 0.56 0.00 27 1007.5
20210624001105 91 323 1.0 5.0 0.00 0.56 0.00 29 1007.4
20210624001014 91 300 1.0 12.0 0.00 0.56 0.00 29 1007.5
20210624000605 91 300 1.0 12.0 0.00 0.56 0.00 29 1007.5
20210624000105 91 313 3.0 10.0 0.00 0.56 0.00 30 1007.5
20210624000015 91 286 2.0 9.0 0.00 0.56 0.00 28 1007.5
20210623235605 91 286 2.0 9.0 0.00 0.56 0.00 28 1007.5
20210623235105 92 276 1.0 8.0 0.00 0.56 0.00 29 1007.5
20210623235015 92 343 5.0 12.0 0.00 0.56 0.00 27 1007.5
20210623234605 92 343 5.0 12.0 0.00 0.56 0.00 27 1007.5
20210623234105 92 339 1.0 5.0 0.00 0.56 0.00 28 1007.5
20210623234014 93 355 2.0 5.0 0.00 0.56 0.00 27 1007.4
20210623233605 93 355 2.0 5.0 0.00 0.56 0.00 27 1007.4
20210623233105 93 344 3.0 10.0 0.00 0.56 0.00 30 1007.5
20210623233015 93 351 1.0 8.0 0.00 0.56 0.00 30 1007.5
20210623232605 93 351 1.0 8.0 0.00 0.56 0.00 30 1007.5
20210623232105 92 348 2.0 8.0 0.00 0.56 0.00 29 1007.5
20210623232016 93 1 4.0 12.0 0.00 0.56 0.00 29 1007.5
20210623231606 93 1 4.0 12.0 0.00 0.56 0.00 29 1007.5
20210623231105 93 9 1.0 8.0 0.00 0.56 0.00 33 1007.6
20210623231014 94 21 2.0 12.0 0.00 0.56 0.00 28 1007.5
20210623230605 94 21 2.0 12.0 0.00 0.56 0.00 28 1007.5
20210623230105 93 15 3.0 9.0 0.00 0.56 0.00 30 1007.6
20210623230014 92 5 3.0 8.0 0.00 0.56 0.00 30 1007.6
20210623225605 92 5 3.0 8.0 0.00 0.56 0.00 30 1007.6
20210623225104 92 341 2.0 6.0 0.00 0.56 0.00 33 1007.6
20210623225015 91 338 0.0 3.0 0.00 0.56 0.00 32 1007.6
20210623224604 91 338 0.0 3.0 0.00 0.56 0.00 32 1007.6
20210623224105 92 337 4.0 9.0 0.00 0.56 0.00 31 1007.7
20210623224015 92 351 0.0 3.0 0.00 0.56 0.00 34 1007.8
20210623223605 92 351 0.0 3.0 0.00 0.56 0.00 34 1007.8
20210623223105 93 349 1.0 5.0 0.00 0.56 0.00 30 1007.9
20210623223015 92 342 1.0 6.0 0.00 0.56 0.00 31 1007.9
20210623222605 92 342 1.0 6.0 0.00 0.56 0.00 31 1007.9
20210623222105 92 337 3.0 5.0 0.00 0.56 0.00 30 1007.9
20210623222015 93 334 1.0 9.0 0.00 0.56 0.00 28 1008.0
20210623221605 93 334 1.0 9.0 0.00 0.56 0.00 28 1008.0
20210623221105 93 319 1.0 8.0 0.00 0.56 0.00 27 1008.0
20210623221015 91 304 2.0 7.0 0.00 0.56 0.00 34 1008.1
20210623220605 91 304 2.0 7.0 0.00 0.56 0.00 34 1008.1
20210623220105 92 329 2.0 6.0 0.00 0.56 0.00 30 1008.1
20210623220015 92 327 3.0 8.0 0.00 0.56 0.00 30 1008.2
20210623215605 92 327 3.0 8.0 0.00 0.56 0.00 30 1008.2
20210623215105 92 323 1.0 6.0 0.00 0.56 0.00 32 1008.2
20210623215014 90 315 1.0 6.0 0.00 0.56 0.00 34 1008.2
20210623214605 90 315 1.0 6.0 0.00 0.56 0.00 34 1008.2
20210623214105 91 348 1.0 3.0 0.00 0.56 0.00 32 1008.2
20210623214014 91 16 3.0 7.0 0.00 0.56 0.00 30 1008.4
20210623213605 91 16 3.0 7.0 0.00 0.56 0.00 30 1008.4
20210623213105 90 20 1.0 3.0 0.00 0.56 0.00 34 1008.4
20210623213014 90 14 0.0 3.0 0.00 0.56 0.00 33 1008.5
20210623212605 90 14 0.0 3.0 0.00 0.56 0.00 33 1008.5
20210623212105 90 14 2.0 8.0 0.00 0.56 0.00 30 1008.6
20210623212016 89 18 1.0 9.0 0.00 0.56 0.00 31 1008.6
20210623211605 89 18 1.0 9.0 0.00 0.56 0.00 31 1008.6
20210623211105 89 5 1.0 3.0 0.00 0.56 0.00 28 1008.6
20210623211014 90 5 1.0 5.0 0.00 0.56 0.00 32 1008.7
20210623210605 90 5 1.0 5.0 0.00 0.56 0.00 32 1008.7
20210623210105 90 8 2.0 7.0 0.00 0.56 0.00 33 1008.8
20210623210015 89 13 0.0 2.0 0.00 0.56 0.00 31 1008.8
20210623205605 89 13 0.0 2.0 0.00 0.56 0.00 31 1008.8
20210623205105 88 14 1.0 3.0 0.00 0.56 0.00 33 1008.9
20210623205016 89 13 1.0 7.0 0.00 0.56 0.00 33 1009.0
20210623204605 89 13 1.0 7.0 0.00 0.56 0.00 33 1009.0
20210623204105 89 350 2.0 5.0 0.00 0.56 0.00 33 1009.0
20210623204014 88 350 1.0 3.0 0.00 0.56 0.00 30 1009.1
20210623203605 88 350 1.0 3.0 0.00 0.56 0.00 30 1009.1
20210623203105 89 350 2.0 6.0 0.00 0.56 0.00 34 1009.1
20210623203014 90 350 2.0 5.0 0.00 0.56 0.00 32 1009.1
20210623202605 90 350 2.0 5.0 0.00 0.56 0.00 32 1009.1
20210623202105 88 324 3.0 5.0 0.00 0.56 0.00 33 1009.1
20210623202015 87 309 1.0 3.0 0.00 0.56 0.00 37 1009.2
20210623201605 87 309 1.0 3.0 0.00 0.56 0.00 37 1009.2
20210623201105 86 305 1.0 5.0 0.00 0.56 0.00 43 1009.2
20210623201014 87 355 0.0 3.0 0.00 0.56 0.00 45 1009.3
20210623200605 87 355 0.0 3.0 0.00 0.56 0.00 45 1009.3
20210623200105 86 355 1.0 6.0 0.00 0.56 0.00 41 1009.3
20210623200014 86 336 0.0 6.0 0.00 0.56 0.00 38 1009.3
20210623195605 86 336 0.0 6.0 0.00 0.56 0.00 38 1009.3
20210623195104 86 329 3.0 6.0 0.00 0.56 0.00 40 1009.3
20210623195016 86 317 0.0 3.0 0.00 0.56 0.00 44 1009.3
20210623194605 86 317 0.0 3.0 0.00 0.56 0.00 44 1009.3
20210623194104 85 315 1.0 3.0 0.00 0.56 0.00 41 1009.3
20210623194014 83 317 1.0 5.0 0.00 0.56 0.00 41 1009.4
20210623193605 83 317 1.0 5.0 0.00 0.56 0.00 41 1009.4
20210623193105 83 323 1.0 5.0 0.00 0.56 0.00 43 1009.5
20210623193014 83 344 0.0 5.0 0.00 0.56 0.00 45 1009.6
20210623192605 83 344 0.0 5.0 0.00 0.56 0.00 45 1009.6
20210623192104 83 346 1.0 6.0 0.00 0.56 0.00 44 1009.5
20210623192014 83 335 1.0 6.0 0.00 0.56 0.00 49 1009.5
20210623191605 83 335 1.0 6.0 0.00 0.56 0.00 49 1009.5
20210623191105 82 302 2.0 5.0 0.00 0.56 0.00 47 1009.6
20210623191015 82 294 1.0 3.0 0.00 0.56 0.00 49 1009.6
20210623190605 82 294 1.0 3.0 0.00 0.56 0.00 49 1009.6
20210623190105 81 294 0.0 3.0 0.00 0.56 0.00 53 1009.7
20210623190014 81 296 0.0 2.0 0.00 0.56 0.00 51 1009.8
20210623185605 81 296 0.0 2.0 0.00 0.56 0.00 51 1009.8
20210623185105 81 295 2.0 3.0 0.00 0.56 0.00 47 1009.8
20210623185015 82 293 1.0 2.0 0.00 0.56 0.00 53 1009.8
20210623184605 82 293 1.0 2.0 0.00 0.56 0.00 53 1009.8
20210623184105 81 296 0.0 3.0 0.00 0.56 0.00 54 1009.8
20210623184014 79 298 0.0 2.0 0.00 0.56 0.00 53 1009.8
20210623183605 79 298 0.0 2.0 0.00 0.56 0.00 53 1009.8
20210623183105 79 296 1.0 5.0 0.00 0.56 0.00 57 1009.9
20210623183014 79 315 0.0 0.0 0.00 0.56 0.00 59 1009.9
20210623182604 79 315 0.0 0.0 0.00 0.56 0.00 59 1009.9
20210623182105 79 315 1.0 3.0 0.00 0.56 0.00 54 1009.9
20210623182014 79 314 0.0 3.0 0.00 0.56 0.00 59 1009.9
20210623181605 79 314 0.0 3.0 0.00 0.56 0.00 59 1009.9
20210623181105 77 310 1.0 3.0 0.00 0.56 0.00 57 1010.0
20210623181015 77 322 1.0 3.0 0.00 0.56 0.00 55 1010.0
20210623180604 77 322 1.0 3.0 0.00 0.56 0.00 55 1010.0
20210623180105 78 333 0.0 2.0 0.00 0.56 0.00 54 1010.0
20210623180014 76 333 0.0 3.0 0.00 0.56 0.00 57 1010.0
20210623175605 76 333 0.0 3.0 0.00 0.56 0.00 57 1010.0
20210623175105 76 333 1.0 3.0 0.00 0.56 0.00 55 1010.0
20210623175015 77 353 1.0 3.0 0.00 0.56 0.00 66 1009.9
20210623174605 77 353 1.0 3.0 0.00 0.56 0.00 66 1009.9
20210623174106 76 5 0.0 3.0 0.00 0.56 0.00 61 1010.0
20210623174014 76 17 2.0 3.0 0.00 0.56 0.00 60 1010.0
20210623173605 76 17 2.0 3.0 0.00 0.56 0.00 60 1010.0
20210623173105 75 134 0.0 1.0 0.00 0.56 0.00 59 1010.0
20210623173014 74 134 0.0 1.0 0.00 0.56 0.00 58 1010.1
20210623172605 74 134 0.0 1.0 0.00 0.56 0.00 58 1010.1
20210623172104 74 134 0.0 2.0 0.00 0.56 0.00 60 1010.1
20210623172015 73 134 0.0 1.0 0.00 0.56 0.00 59 1010.1
20210623171605 73 134 0.0 1.0 0.00 0.56 0.00 59 1010.1
20210623171105 74 134 1.0 2.0 0.00 0.56 0.00 65 1010.1
20210623171013 72 134 1.0 3.0 0.00 0.56 0.00 61 1010.2
20210623170605 72 134 1.0 3.0 0.00 0.56 0.00 61 1010.2
20210623170105 73 134 0.0 1.0 0.00 0.56 0.00 60 1010.2
20210623170015 74 134 1.0 3.0 0.00 0.56 0.00 61 1010.3
20210623165605 74 134 1.0 3.0 0.00 0.56 0.00 61 1010.3
20210623165105 73 134 1.0 2.0 0.00 0.56 0.00 60 1010.3
20210623165015 73 134 1.0 3.0 0.00 0.56 0.00 61 1010.3
20210623164605 73 134 1.0 3.0 0.00 0.56 0.00 61 1010.3
20210623164105 72 134 0.0 1.0 0.00 0.56 0.00 61 1010.4
20210623164014 72 134 1.0 1.0 0.00 0.56 0.00 67 1010.4
20210623163604 72 134 1.0 1.0 0.00 0.56 0.00 67 1010.4
20210623163104 71 134 0.0 0.0 0.00 0.56 0.00 62 1010.4
20210623163014 70 134 0.0 0.0 0.00 0.56 0.00 63 1010.4
20210623162605 70 134 0.0 0.0 0.00 0.56 0.00 63 1010.4
20210623162105 71 134 0.0 0.0 0.00 0.56 0.00 68 1010.4
20210623162015 70 134 0.0 0.0 0.00 0.56 0.00 66 1010.4
20210623161605 70 134 0.0 0.0 0.00 0.56 0.00 66 1010.4
20210623161105 70 134 0.0 3.0 0.00 0.56 0.00 64 1010.5
20210623161014 70 134 0.0 0.0 0.00 0.56 0.00 63 1010.5
20210623160605 70 134 0.0 0.0 0.00 0.56 0.00 63 1010.5
20210623160105 69 134 0.0 0.0 0.00 0.56 0.00 64 1010.5
20210623160014 70 134 0.0 0.0 0.00 0.56 0.00 66 1010.5
20210623155605 70 134 0.0 0.0 0.00 0.56 0.00 66 1010.5
20210623155104 69 134 0.0 0.0 0.00 0.56 0.00 65 1010.6
20210623155015 69 134 0.0 0.0 0.00 0.56 0.00 68 1010.5
20210623154605 69 134 0.0 0.0 0.00 0.56 0.00 68 1010.5
20210623154105 68 134 0.0 0.0 0.00 0.56 0.00 70 1010.6
20210623154014 68 134 0.0 0.0 0.00 0.56 0.00 72 1010.5
20210623153605 68 134 0.0 0.0 0.00 0.56 0.00 72 1010.5
20210623153105 67 134 0.0 1.0 0.00 0.56 0.00 70 1010.6
20210623153014 67 134 0.0 0.0 0.00 0.56 0.00 69 1010.5
20210623152605 67 134 0.0 0.0 0.00 0.56 0.00 69 1010.5
20210623152105 67 134 0.0 0.0 0.00 0.56 0.00 72 1010.5
20210623152015 66 134 0.0 0.0 0.00 0.56 0.00 69 1010.4
20210623151605 66 134 0.0 0.0 0.00 0.56 0.00 69 1010.4
20210623151105 66 134 0.0 0.0 0.00 0.56 0.00 72 1010.4
20210623151014 65 134 0.0 0.0 0.00 0.56 0.00 69 1010.4
20210623150605 65 134 0.0 0.0 0.00 0.56 0.00 69 1010.4
20210623150105 65 134 0.0 0.0 0.00 0.56 0.00 72 1010.3
20210623150015 64 134 0.0 0.0 0.00 0.56 0.00 73 1010.3
20210623145605 64 134 0.0 0.0 0.00 0.56 0.00 73 1010.3
20210623145105 64 134 0.0 0.0 0.00 0.56 0.00 75 1010.3
20210623145015 64 134 0.0 0.0 0.00 0.56 0.00 75 1010.2
20210623144605 64 134 0.0 0.0 0.00 0.56 0.00 75 1010.2
20210623144105 64 134 0.0 0.0 0.00 0.56 0.00 75 1010.3
20210623144014 63 134 0.0 0.0 0.00 0.56 0.00 76 1010.3
20210623143605 63 134 0.0 0.0 0.00 0.56 0.00 76 1010.3
20210623143105 63 134 0.0 0.0 0.00 0.56 0.00 79 1010.3
20210623143014 62 134 0.0 0.0 0.00 0.56 0.00 79 1010.3
20210623142605 62 134 0.0 0.0 0.00 0.56 0.00 79 1010.3
20210623142104 62 134 0.0 0.0 0.00 0.56 0.00 80 1010.3
20210623142015 61 134 0.0 0.0 0.00 0.56 0.00 82 1010.2
20210623141604 61 134 0.0 0.0 0.00 0.56 0.00 82 1010.2
20210623141105 61 134 0.0 0.0 0.00 0.56 0.00 81 1010.2
20210623141014 60 134 0.0 0.0 0.00 0.56 0.00 84 1010.1
20210623140605 60 134 0.0 0.0 0.00 0.56 0.00 84 1010.1
20210623140105 60 134 0.0 0.0 0.00 0.56 0.00 86 1010.2
20210623140014 59 134 0.0 0.0 0.00 0.56 0.00 87 1010.2
20210623135605 59 134 0.0 0.0 0.00 0.56 0.00 87 1010.2
20210623135105 58 134 0.0 0.0 0.00 0.56 0.00 89 1010.1
20210623135015 58 134 0.0 0.0 0.00 0.56 0.00 90 1010.1
20210623134605 58 134 0.0 0.0 0.00 0.56 0.00 90 1010.1
20210623134105 57 134 0.0 0.0 0.00 0.56 0.00 90 1010.1
20210623134014 57 134 0.0 0.0 0.00 0.56 0.00 91 1010.0
20210623133605 57 134 0.0 0.0 0.00 0.56 0.00 91 1010.0
20210623133105 56 134 0.0 0.0 0.00 0.56 0.00 92 1009.9
20210623133015 55 134 0.0 0.0 0.00 0.56 0.00 93 1009.8
20210623132605 55 134 0.0 0.0 0.00 0.56 0.00 93 1009.8
20210623132105 55 134 0.0 0.0 0.00 0.56 0.00 92 1009.7
20210623132014 55 134 0.0 0.0 0.00 0.56 0.00 93 1009.7
20210623131605 55 134 0.0 0.0 0.00 0.56 0.00 93 1009.7
20210623131105 54 134 0.0 0.0 0.00 0.56 0.00 93 1009.8
20210623131014 53 134 0.0 0.0 0.00 0.56 0.00 92 1009.7
20210623130604 53 134 0.0 0.0 0.00 0.56 0.00 92 1009.7